• In Portugal
  • List of Countries
  • For 7 days
  • Water Temperature
  • Satellite Maps
  • Weather Map
  • Weather Widgets
  • user-avatar
    Login

    Hourly Weather Pobondzie

    Today, 20 June, Wednesday

    Time Temperature Precipitation Wind Pressure Humidity
    00:00 +13°C° 0 mm 3 mps 750 mmHg 94%
    01:00 +13°C° 0 mm 3 mps 751 mmHg 95%
    02:00 +13°C° 0 mm 3 mps 750 mmHg 95%
    03:00 +13°C° 0 mm 3 mps 750 mmHg 94%
    04:00 +13°C° 0 mm 4 mps 751 mmHg 94%
    05:00 +13°C° 0 mm 4 mps 751 mmHg 93%
    06:00 +14°C° 0 mm 4 mps 751 mmHg 86%
    07:00 +15°C° 0 mm 5 mps 751 mmHg 78%
    08:00 +17°C° 0 mm 5 mps 751 mmHg 71%
    09:00 +17°C° 0 mm 5 mps 751 mmHg 68%
    10:00 +19°C° 0 mm 5 mps 751 mmHg 64%
    11:00 +20°C° 0 mm 5 mps 752 mmHg 60%
    12:00 +21°C° 0 mm 5 mps 751 mmHg 59%
    13:00 +21°C° 0 mm 5 mps 751 mmHg 58%
    14:00 +22°C° 0 mm 5 mps 751 mmHg 57%
    15:00 +22°C° 0 mm 5 mps 751 mmHg 58%
    16:00 +22°C° 0 mm 5 mps 751 mmHg 59%
    17:00 +22°C° 0 mm 4 mps 751 mmHg 60%
    18:00 +21°C° 0 mm 3 mps 751 mmHg 66%
    19:00 +20°C° 0 mm 2 mps 751 mmHg 72%
    20:00 +20°C° 0 mm 1 mps 750 mmHg 78%
    21:00 +18°C° 0 mm 2 mps 750 mmHg 81%
    22:00 +16°C° 0 mm 2 mps 750 mmHg 84%
    23:00 +15°C° 0 mm 2 mps 750 mmHg 87%

    Tomorrow, 21 June, Thursday

    Time Temperature Precipitation Wind Pressure Humidity
    00:00 +15°C° 0 mm 2 mps 750 mmHg 86%
    01:00 +14°C° 0 mm 3 mps 749 mmHg 85%
    02:00 +14°C° 0 mm 3 mps 749 mmHg 84%
    03:00 +16°C° 0 mm 3 mps 749 mmHg 83%
    04:00 +16°C° 0 mm 3 mps 748 mmHg 82%
    05:00 +17°C° 0 mm 3 mps 748 mmHg 81%
    06:00 +18°C° 0 mm 4 mps 748 mmHg 78%
    07:00 +20°C° 0 mm 4 mps 747 mmHg 76%
    08:00 +22°C° 0 mm 4 mps 747 mmHg 73%
    09:00 +22°C° 0.1 mm 5 mps 746 mmHg 71%
    10:00 +23°C° 0.1 mm 5 mps 746 mmHg 69%
    11:00 +24°C° 0.1 mm 6 mps 745 mmHg 68%
    12:00 +26°C° 0.3 mm 6 mps 745 mmHg 66%
    13:00 +26°C° 0.3 mm 6 mps 744 mmHg 64%
    14:00 +27°C° 0.3 mm 6 mps 743 mmHg 62%
    15:00 +27°C° 0.6 mm 6 mps 742 mmHg 66%
    16:00 +26°C° 0.6 mm 5 mps 741 mmHg 71%
    17:00 +25°C° 0.6 mm 5 mps 741 mmHg 75%
    18:00 +23°C° 1 mm 5 mps 740 mmHg 79%
    19:00 +22°C° 1 mm 5 mps 739 mmHg 82%
    20:00 +21°C° 1 mm 5 mps 739 mmHg 86%
    21:00 +20°C° 0.4 mm 5 mps 739 mmHg 88%
    22:00 +17°C° 0.4 mm 5 mps 739 mmHg 91%
    23:00 +17°C° 0.4 mm 4 mps 739 mmHg 94%

    Day after tomorrow, 22 June, Friday

    Time Temperature Precipitation Wind Pressure Humidity
    00:00 +14°C° 0.7 mm 4 mps 739 mmHg 94%
    01:00 +13°C° 0.7 mm 4 mps 739 mmHg 94%
    02:00 +11°C° 0.7 mm 4 mps 739 mmHg 93%
    03:00 +10°C° 0 mm 5 mps 740 mmHg 92%
    04:00 +10°C° 0 mm 5 mps 740 mmHg 91%
    05:00 +10°C° 0 mm 6 mps 741 mmHg 90%
    06:00 +10°C° 0 mm 6 mps 741 mmHg 85%
    07:00 +11°C° 0 mm 7 mps 741 mmHg 79%
    08:00 +11°C° 0 mm 7 mps 742 mmHg 73%
    09:00 +12°C° 0 mm 7 mps 742 mmHg 69%
    10:00 +14°C° 0 mm 7 mps 742 mmHg 64%
    11:00 +15°C° 0 mm 7 mps 742 mmHg 60%
    12:00 +15°C° 0.1 mm 8 mps 742 mmHg 59%
    13:00 +16°C° 0.1 mm 8 mps 742 mmHg 58%
    14:00 +16°C° 0.1 mm 9 mps 742 mmHg 56%
    15:00 +16°C° 0.2 mm 8 mps 742 mmHg 61%
    16:00 +15°C° 0.2 mm 8 mps 742 mmHg 66%
    17:00 +15°C° 0.2 mm 7 mps 742 mmHg 71%
    18:00 +14°C° 0.2 mm 6 mps 743 mmHg 75%
    19:00 +13°C° 0.2 mm 5 mps 743 mmHg 79%
    20:00 +12°C° 0.2 mm 4 mps 743 mmHg 83%
    21:00 +11°C° 0 mm 4 mps 744 mmHg 86%
    22:00 +10°C° 0 mm 4 mps 744 mmHg 89%
    23:00 +9°C° 0 mm 3 mps 744 mmHg 92%

    23 June, Saturday

    Time Temperature Precipitation Wind Pressure Humidity
    00:00 +8°C° 0 mm 4 mps 744 mmHg 91%
    01:00 +8°C° 0 mm 4 mps 744 mmHg 89%
    02:00 +8°C° 0 mm 4 mps 744 mmHg 88%
    03:00 +8°C° 0 mm 4 mps 744 mmHg 88%
    04:00 +8°C° 0 mm 3 mps 744 mmHg 89%
    05:00 +8°C° 0 mm 3 mps 744 mmHg 89%
    06:00 +10°C° 0.1 mm 4 mps 744 mmHg 86%
    07:00 +11°C° 0.1 mm 4 mps 744 mmHg 84%
    08:00 +12°C° 0.1 mm 5 mps 744 mmHg 81%
    09:00 +13°C° 0.4 mm 5 mps 744 mmHg 81%
    10:00 +13°C° 0.4 mm 5 mps 744 mmHg 82%
    11:00 +13°C° 0.4 mm 5 mps 744 mmHg 83%
    12:00 +14°C° 0.5 mm 5 mps 744 mmHg 82%
    13:00 +14°C° 0.5 mm 5 mps 744 mmHg 81%
    14:00 +14°C° 0.5 mm 5 mps 744 mmHg 80%
    15:00 +14°C° 0.4 mm 5 mps 744 mmHg 81%
    16:00 +14°C° 0.4 mm 4 mps 744 mmHg 82%
    17:00 +14°C° 0.4 mm 4 mps 744 mmHg 82%
    18:00 +13°C° 0.3 mm 3 mps 744 mmHg 85%
    19:00 +13°C° 0.3 mm 3 mps 745 mmHg 87%
    20:00 +12°C° 0.3 mm 3 mps 745 mmHg 90%
    21:00 +11°C° 0 mm 3 mps 745 mmHg 92%
    22:00 +10°C° 0 mm 3 mps 745 mmHg 93%
    23:00 +9°C° 0 mm 3 mps 745 mmHg 95%

    24 June, Sunday

    Time Temperature Precipitation Wind Pressure Humidity
    00:00 +8°C° 0 mm 3 mps 746 mmHg 96%
    01:00 +8°C° 0 mm 3 mps 746 mmHg 96%
    02:00 +8°C° 0 mm 3 mps 746 mmHg 96%
    03:00 +8°C° 0 mm 3 mps 746 mmHg 96%
    04:00 +8°C° 0 mm 3 mps 747 mmHg 97%
    05:00 +7°C° 0 mm 2 mps 747 mmHg 97%
    06:00 +9°C° 0 mm 3 mps 747 mmHg 93%
    07:00 +11°C° 0 mm 3 mps 747 mmHg 88%
    08:00 +12°C° 0 mm 3 mps 748 mmHg 84%
    09:00 +14°C° 0.1 mm 3 mps 748 mmHg 78%
    10:00 +16°C° 0.1 mm 3 mps 748 mmHg 73%
    11:00 +17°C° 0.1 mm 3 mps 748 mmHg 67%
    12:00 +17°C° 0.4 mm 4 mps 748 mmHg 68%
    13:00 +18°C° 0.4 mm 4 mps 748 mmHg 70%
    14:00 +17°C° 0.4 mm 5 mps 749 mmHg 71%
    15:00 +17°C° 0.3 mm 5 mps 749 mmHg 70%
    16:00 +17°C° 0.3 mm 5 mps 749 mmHg 70%
    17:00 +18°C° 0.3 mm 4 mps 749 mmHg 69%
    18:00 +17°C° 0.1 mm 4 mps 749 mmHg 73%
    19:00 +16°C° 0.1 mm 3 mps 749 mmHg 76%
    20:00 +16°C° 0.1 mm 2 mps 750 mmHg 80%
    21:00 +14°C° 0 mm 2 mps 750 mmHg 84%
    22:00 +13°C° 0 mm 2 mps 750 mmHg 88%
    23:00 +10°C° 0 mm 2 mps 751 mmHg 92%

    25 June, Monday

    Time Temperature Precipitation Wind Pressure Humidity
    00:00 +9°C° 0 mm 2 mps 751 mmHg 92%
    01:00 +9°C° 0 mm 2 mps 751 mmHg 93%
    02:00 +8°C° 0 mm 2 mps 751 mmHg 93%
    03:00 +8°C° 0 mm 2 mps 751 mmHg 91%
    04:00 +7°C° 0 mm 2 mps 751 mmHg 90%
    05:00 +7°C° 0 mm 2 mps 752 mmHg 88%
    06:00 +9°C° 0 mm 2 mps 752 mmHg 82%
    07:00 +12°C° 0 mm 2 mps 752 mmHg 75%
    08:00 +15°C° 0 mm 2 mps 752 mmHg 68%
    09:00 +16°C° 0 mm 2 mps 753 mmHg 63%
    10:00 +17°C° 0 mm 2 mps 753 mmHg 57%
    11:00 +19°C° 0 mm 2 mps 753 mmHg 52%
    12:00 +20°C° 0 mm 2 mps 753 mmHg 51%
    13:00 +20°C° 0 mm 3 mps 753 mmHg 50%
    14:00 +21°C° 0 mm 3 mps 753 mmHg 50%
    15:00 +21°C° 0.1 mm 3 mps 753 mmHg 55%
    16:00 +21°C° 0.1 mm 3 mps 753 mmHg 60%
    17:00 +20°C° 0.1 mm 3 mps 753 mmHg 65%
    18:00 +19°C° 0 mm 3 mps 753 mmHg 71%
    19:00 +18°C° 0 mm 3 mps 753 mmHg 76%
    20:00 +17°C° 0 mm 2 mps 753 mmHg 81%
    21:00 +16°C° 0 mm 2 mps 753 mmHg 85%
    22:00 +15°C° 0 mm 2 mps 754 mmHg 89%
    23:00 +13°C° 0 mm 2 mps 754 mmHg 93%
    Show more